Location: Roland
(31.1349°N, 85.4372°W)
Time: 21:28:55
(UTC+00:00)

Tiros 1 - Pass Details

Date: 24 April 2021
Orbit: 630 x 664 km, 48.4° (Epoch: 05 May)

Event Time Altitude Azimuth Distance (km) Brightness Sun altitude
Rises 21:28:36 0° 286° (WNW) 2,910 11.4 34.7°
Reaches altitude 10° 21:32:15 10° 257° (WSW) 2,000 11.1 33.9°
Maximum altitude 21:34:06 12° 233° (SW) 1,851 10.5 33.5°
Drops below altitude 10° 21:35:57 10° 209° (SSW) 2,000 10.2 33.1°
Sets 21:39:38 0° 179° (S) 2,908 10.5 32.3°
